Theta_e
305 306 306 305 304 305 307 308 304 304 310 318 322 324 325 330 333 333 334 335 336 331 329 330 334 332 334 335 334 333 331 331 354 355 356 356 357 358 359 359 358 359 355 356
303 305 305 303 305 306 309 310 309 310 309 323 324 326 325 325 327 327 329 330 333 334 334 335 333 332 334 335 331 333 341 345 349 353 355 356 358 358 359 357 358 357 356 354
299 304 304 300 304 309 311 313 313 308 316 322 322 322 325 326 326 328 327 329 330 332 334 335 337 335 336 335 334 336 339 345 346 349 353 355 356 353 351 352 355 356 356 355
301 303 294 307 317 313 311 313 314 313 313 316 319 323 324 325 324 324 324 325 326 328 330 330 336 341 340 339 337 337 336 338 341 342 347 348 346 348 349 349 350 351 351 355
300 298 302 309 314 309 309 310 315 314 313 315 318 322 324 330 328 325 327 325 329 332 332 331 331 334 335 338 337 334 335 336 337 340 342 345 341 344 345 345 346 351 352 354
303 298 293 309 313 319 316 305 314 313 313 312 317 312 318 329 328 328 325 325 328 330 330 332 331 334 333 332 331 332 335 338 340 342 344 343 345 343 345 346 347 348 350 346
303 301 304 314 317 319 301 306 319 319 318 319 317 321 327 329 327 327 327 328 328 327 326 325 330 331 328 329 327 330 333 337 339 342 342 345 347 347 344 343 341 340 340 343
304 299 297 318 316 309 317 323 323 322 322 320 324 326 328 328 326 325 325 326 327 326 326 327 328 325 327 325 328 329 329 332 334 338 340 339 340 341 340 338 334 333 333 333
307 305 316 320 318 322 324 321 320 323 325 325 324 324 325 325 325 325 325 325 326 326 326 327 327 329 326 326 328 330 330 330 331 332 334 338 338 338 336 338 334 335 336 337
309 312 315 319 321 321 321 322 322 324 324 324 322 323 323 324 324 324 324 324 326 326 325 325 327 327 327 327 328 329 328 329 328 328 328 331 329 333 335 334 333 331 332 333
308 314 316 317 320 322 322 322 321 323 323 322 322 322 324 324 324 324 324 325 325 324 324 325 327 327 327 327 328 325 325 329 329 330 327 327 330 332 330 331 327 329 331 333
303 316 317 316 320 323 320 320 322 321 321 323 324 323 325 325 326 326 324 324 323 324 326 326 325 326 327 327 327 325 323 323 325 327 328 329 328 326 311 306 301 299 298 303
310 321 317 321 319 316 318 322 323 323 321 321 324 327 326 327 328 321 326 323 323 324 326 327 326 326 327 326 326 325 323 323 322 323 326 327 329 328 325 318 300 297 296 297
319 321 317 320 319 323 324 326 323 325 326 327 326 327 327 328 327 327 326 325 325 325 326 325 325 325 326 325 325 324 324 314 321 323 325 326 325 328 326 325 325 324 306 303
321 322 321 323 324 324 325 320 319 320 322 324 327 325 326 324 325 324 325 325 326 325 324 325 322 322 324 324 324 323 322 322 322 321 324 324 326 329 325 326 323 321 320 311
321 321 321 321 321 323 320 317 317 319 321 323 323 322 322 322 323 325 326 326 324 322 324 323 323 323 323 323 323 323 323 318 316 321 323 326 328 329 325 324 322 323 323 319
318 318 319 318 321 322 317 318 319 319 321 320 320 321 322 323 324 324 325 325 324 323 322 322 321 322 322 322 323 322 322 322 318 322 322 324 327 330 330 324 321 324 323 317
322 320 320 321 321 322 320 319 320 321 322 323 322 322 321 321 322 323 324 324 322 320 320 321 321 319 321 321 321 321 321 322 322 322 322 323 326 330 331 324 322 325 321 321
321 319 321 323 323 323 321 321 322 324 324 324 322 321 322 322 324 324 324 321 319 317 317 321 317 319 321 321 319 320 320 322 322 323 324 321 326 328 327 327 322 319 320 318
320 322 323 323 323 323 322 323 324 324 325 324 324 323 323 324 324 324 323 320 319 318 320 321 319 320 321 322 317 318 320 321 322 323 325 324 324 322 325 314 321 317 316 314
322 323 322 322 322 322 322 322 322 320 321 322 322 323 323 324 324 323 319 316 319 319 318 317 319 319 319 317 317 320 319 322 320 322 323 324 323 320 320 320 318 316 317 317
320 319 319 319 318 319 320 321 320 322 324 324 322 322 319 319 320 320 321 319 319 309 315 319 320 314 316 311 317 318 319 319 319 320 320 319 322 322 322 321 320 319 320 317
318 318 318 318 318 320 321 323 322 322 322 323 321 320 319 317 318 316 316 323 320 311 315 319 310 309 308 315 318 317 319 320 320 319 320 318 321 317 318 321 318 319 319 317
320 320 320 322 322 320 319 322 322 324 324 324 324 324 322 317 318 320 323 315 309 309 312 316 313 305 302 316 317 316 317 317 318 319 318 305 319 320 321 322 320 315 315 311
321 320 321 322 320 319 322 323 322 322 322 323 325 325 325 323 319 318 321 321 308 309 314 309 307 306 314 316 315 315 314 315 315 316 317 317 316 317 317 318 320 317 315 315
322 319 319 320 319 320 318 318 316 317 317 317 318 320 322 322 323 321 321 316 320 314 314 317 317 316 316 315 315 315 315 315 314 315 313 315 317 315 318 318 316 315 316 316
322 307 320 319 321 321 320 317 317 316 317 319 319 323 324 324 322 319 314 321 320 317 316 316 317 314 316 315 315 315 316 316 309 315 315 315 316 316 316 317 317 316 315 315
Wind_Speed
19 17 18 18 16 16 11 14 8 18 28 10 6 6 5 4 4 7 10 11 11 8 4 2 4 1 5 8 6 15 26 24 7 10 12 12 13 12 12 11 10 10 9 10
18 20 21 18 16 15 13 10 12 13 19 5 8 2 6 10 9 9 8 10 10 7 7 8 6 3 9 4 12 11 11 1 3 5 8 9 10 10 10 9 9 9 9 10
15 16 16 14 10 4 5 7 9 10 17 1 4 5 8 9 9 9 11 12 11 11 8 7 7 8 11 8 4 12 5 8 12 12 11 12 12 12 10 9 9 11 10 10
12 13 17 4 6 2 8 4 3 3 9 9 7 6 7 9 8 11 10 9 10 9 9 10 11 8 4 9 5 7 5 6 9 6 9 10 11 11 10 7 8 11 6 7
10 12 13 11 3 4 9 7 3 3 2 6 12 3 10 9 11 8 9 7 6 7 7 8 11 9 10 9 8 5 3 2 3 4 5 9 9 11 5 5 5 1 3 8
10 12 14 8 4 6 5 4 5 4 4 14 8 4 7 10 10 10 9 5 7 9 8 9 8 7 8 8 9 8 5 5 4 4 6 6 9 10 5 3 8 5 6 3
10 10 2 7 11 7 5 6 8 2 5 9 2 5 6 8 10 9 8 7 7 10 10 10 9 9 10 8 8 6 5 4 4 6 7 7 6 7 7 7 4 4 4 7
5 7 3 11 3 5 5 10 8 4 2 1 4 5 7 9 9 8 9 8 8 8 9 9 8 9 10 10 10 8 6 7 8 7 7 5 4 5 4 4 5 6 8 8
5 4 8 4 2 2 6 5 3 4 7 6 4 6 7 8 8 9 8 8 7 9 8 8 9 11 9 9 9 9 8 8 6 7 7 9 6 6 6 7 7 7 9 10
9 3 4 3 4 4 6 3 5 5 5 5 7 6 6 7 7 7 7 7 7 8 8 9 8 7 6 6 6 6 5 6 6 6 8 8 7 8 8 6 6 6 7 9
6 5 7 5 2 5 5 3 4 5 6 7 5 5 5 6 6 6 6 5 6 7 7 7 6 6 7 8 9 8 7 5 4 3 4 5 6 5 5 7 6 6 8 9
9 8 5 3 6 6 3 3 2 4 4 3 4 4 3 5 5 4 5 5 6 6 7 7 7 8 9 9 9 8 8 7 6 7 5 4 5 6 5 6 8 9 12 6
9 6 3 3 4 7 9 5 5 6 6 4 3 2 2 3 3 4 3 4 3 4 6 7 8 8 9 9 9 9 8 7 8 8 6 6 7 6 6 2 7 7 9 10
4 2 3 4 5 9 4 8 6 7 6 5 4 3 3 3 3 2 2 2 3 5 6 6 8 10 10 10 10 10 10 7 7 7 7 6 6 7 7 7 8 6 10 9
7 7 2 2 4 5 5 6 7 7 6 6 5 5 4 3 3 4 4 3 5 6 6 6 7 8 8 9 9 11 9 7 7 7 7 6 5 5 5 5 5 5 6 4
8 8 7 6 3 5 5 4 7 6 5 6 5 5 4 4 3 2 3 5 6 7 7 8 8 7 7 8 9 9 7 4 7 8 7 7 4 3 0 1 2 5 5 6
8 7 8 7 7 8 4 6 6 5 4 4 3 2 1 2 2 3 3 3 6 7 7 6 6 6 9 8 9 8 7 6 3 9 7 5 5 2 1 1 4 4 3 6
3 2 2 2 6 7 7 6 5 4 3 2 1 3 3 4 5 5 5 7 7 6 6 6 7 9 8 8 10 10 7 6 5 6 6 7 6 3 2 0 4 3 3 3
3 1 3 4 6 6 6 5 3 2 3 2 5 6 5 5 5 6 5 7 7 7 8 7 6 9 8 9 10 10 9 8 8 6 6 4 4 4 2 2 1 1 1 3
6 7 7 7 5 5 6 4 1 1 2 5 6 7 6 7 5 6 5 6 3 5 6 6 8 6 9 10 10 8 9 10 8 7 6 5 5 5 6 4 4 3 3 4
8 9 8 7 7 6 5 3 3 4 4 5 5 5 4 4 4 5 7 5 6 4 6 5 5 5 5 7 11 3 6 8 9 8 7 5 4 4 4 4 5 4 4 3
6 7 6 5 4 5 4 3 3 1 1 2 0 2 4 5 5 5 4 5 5 3 6 4 3 10 8 12 10 4 2 5 5 4 5 5 6 1 4 2 3 3 3 4
5 6 5 5 4 3 2 2 2 3 3 3 4 3 4 5 4 4 4 5 6 6 6 5 7 6 8 9 7 5 2 2 2 2 2 3 2 1 3 3 4 3 3 5
3 4 4 3 3 4 4 2 5 4 5 5 6 5 5 6 3 6 2 3 4 4 6 5 4 6 10 9 4 5 4 4 2 2 2 6 2 2 5 3 3 6 4 4
2 4 5 5 6 2 3 3 6 8 6 7 7 7 8 6 6 5 3 5 7 5 7 8 7 8 9 7 5 5 5 6 6 8 3 2 3 2 3 4 4 5 6 7
3 3 4 4 4 4 5 6 7 8 8 8 8 4 5 5 4 5 6 6 6 4 6 6 7 7 8 7 6 7 6 5 5 6 5 6 3 4 1 1 6 7 7 6
3 2 3 4 2 2 3 5 6 8 8 7 8 5 7 6 7 8 7 8 7 6 7 7 8 8 8 8 7 7 7 8 3 6 7 5 4 5 5 4 4 5 5 6
Wind_Direction
283 286 286 284 289 294 279 253 268 305 292 35 44 350 47 43 93 72 63 60 65 86 86 60 44 87 160 148 120 43 3 277 216 207 211 194 196 194 206 209 216 224 217 231
288 272 268 276 285 289 280 293 259 285 293 58 69 276 69 28 33 40 25 30 31 37 42 26 30 279 249 217 113 93 104 19 157 253 219 215 203 202 198 210 224 227 226 225
284 292 284 277 287 329 287 265 309 316 349 115 130 160 68 73 71 63 50 33 46 31 18 41 56 20 35 61 80 107 163 203 186 185 204 204 199 194 186 205 223 220 222 232
269 278 266 31 62 34 311 296 259 276 49 26 322 35 43 25 42 54 36 25 27 19 9 5 17 47 124 90 124 146 161 209 241 188 205 208 199 211 213 219 211 220 205 240
269 260 276 169 87 343 327 300 176 115 87 120 268 293 93 60 66 56 53 16 24 37 26 29 26 48 61 67 122 131 145 119 301 319 284 239 264 252 206 239 234 100 255 258
294 288 281 59 49 5 314 303 133 80 71 197 255 358 83 62 53 58 76 34 19 40 40 37 35 58 67 78 79 69 22 19 318 312 282 276 260 265 265 296 283 302 252 193
278 274 104 11 330 332 286 342 342 201 208 237 258 43 106 82 71 66 64 57 65 45 40 22 20 51 52 44 48 37 9 339 335 324 311 296 289 287 310 326 318 289 260 251
306 289 243 13 302 292 7 323 334 325 83 153 106 109 82 78 74 68 64 68 71 71 58 38 41 42 40 37 21 32 17 32 355 337 303 296 304 323 297 267 258 251 252 249
336 334 342 7 245 130 6 315 28 63 105 129 100 70 69 73 86 92 94 90 84 77 72 62 48 40 37 25 20 24 23 21 14 345 334 325 321 298 268 241 235 240 244 244
320 38 15 168 198 202 185 318 68 82 62 55 70 71 73 74 75 87 84 81 74 75 64 55 40 40 37 21 4 18 11 17 357 350 338 339 333 319 294 283 291 286 273 265
313 45 338 153 130 115 140 129 87 61 46 51 52 71 85 97 79 74 71 60 55 55 55 52 31 24 17 14 2 355 345 351 8 14 330 331 322 311 293 287 290 282 276 279
335 9 327 152 59 331 85 80 26 34 32 45 27 58 91 105 95 82 83 68 53 32 27 19 18 10 10 1 356 346 335 349 354 325 347 339 348 320 232 263 304 293 291 283
316 41 341 73 115 38 321 29 71 36 6 4 39 6 51 56 71 66 65 82 54 10 353 353 359 354 2 349 342 336 331 332 321 295 337 331 331 324 326 225 232 246 258 268
284 173 228 192 170 201 163 104 86 65 49 46 50 60 38 9 105 30 45 49 354 337 323 335 337 343 348 341 332 325 319 264 285 308 313 319 320 320 329 329 329 318 233 251
184 204 280 187 192 127 120 108 84 61 65 72 63 57 43 36 45 67 52 353 319 313 321 328 331 339 339 326 322 315 310 312 322 298 296 315 296 337 324 341 351 335 324 309
179 180 217 227 174 145 134 104 84 72 63 79 69 56 61 65 51 22 350 345 328 352 328 321 324 341 325 327 321 304 298 221 264 289 290 286 303 341 203 27 352 356 11 349
188 205 222 231 185 169 152 114 107 96 106 103 94 93 74 345 337 354 10 352 329 330 325 315 328 341 331 322 325 318 311 312 269 259 275 311 296 338 358 239 289 290 332 21
215 352 326 329 157 152 162 135 121 124 124 122 189 286 271 296 332 338 349 345 334 328 332 345 5 341 316 344 352 313 312 315 303 305 315 288 342 336 300 117 295 2 10 14
248 279 124 121 135 151 146 144 130 130 149 243 256 266 279 292 306 313 332 329 319 318 21 338 4 306 342 353 342 318 326 324 326 325 328 351 318 341 177 123 114 36 21 26
83 90 97 109 112 125 124 121 150 317 319 286 278 276 269 274 297 292 320 316 350 349 333 352 330 331 331 328 335 324 339 342 331 354 347 352 34 12 1 96 115 90 82 68
69 78 79 80 80 74 74 59 358 335 311 284 276 280 305 330 303 301 286 295 57 18 316 269 295 322 304 358 314 16 346 354 343 4 4 11 39 37 62 89 110 114 107 106
22 46 54 61 73 89 66 17 7 31 170 152 14 345 330 303 304 278 264 301 324 131 310 298 313 48 347 332 296 355 11 357 353 9 21 7 351 62 133 82 126 140 148 117
13 46 46 50 50 38 351 350 10 315 297 277 302 320 333 333 323 301 316 127 292 85 296 283 53 358 323 284 286 323 22 267 299 291 73 335 121 84 8 27 134 159 119 129
359 25 352 317 291 271 267 291 314 292 275 269 259 263 273 287 238 204 196 165 205 273 301 322 345 317 304 282 284 298 300 300 296 354 104 227 356 38 109 113 80 116 126 105
296 294 283 309 290 323 315 289 270 248 245 253 252 255 245 242 275 313 296 297 158 253 280 164 218 259 269 278 295 311 299 280 316 328 322 351 330 28 54 111 122 154 175 184
266 333 325 304 320 340 4 330 307 319 319 310 301 292 285 280 252 241 246 237 273 228 251 254 236 240 271 282 292 288 282 283 245 242 286 304 316 306 257 255 149 188 198 211
271 315 255 258 167 326 332 334 303 332 329 347 300 298 285 275 250 242 258 275 254 236 234 240 249 225 254 272 281 286 298 300 302 298 315 297 261 254 255 227 229 215 210 202